Time,TemperatureF,DewpointF,PressureIn,WindDirection,WindDirectionDegrees,WindSpeedMPH,WindSpeedGustMPH,Humidity,HourlyPrecipIn,Conditions,Clouds,dailyrainin,SoftwareType,DateUTC
2013-02-21 00:01:00,16.0,9.0,-100.00,SE,130,4.0,6.0,74,0.00,,,-99.99,,2013-02-21 06:01:00,
2013-02-21 00:11:00,16.0,10.0,-100.00,SE,130,4.0,6.0,74,0.00,,,-99.99,,2013-02-21 06:11:00,
2013-02-21 00:21:00,16.0,10.0,-100.00,SE,130,4.0,6.0,74,0.00,,,-99.99,,2013-02-21 06:21:00,
2013-02-21 00:31:00,17.0,10.0,-100.00,SE,130,7.0,9.0,74,0.00,,,-99.99,,2013-02-21 06:31:00,
2013-02-21 00:41:00,17.0,10.0,-100.00,SE,130,7.0,9.0,74,0.00,,,-99.99,,2013-02-21 06:41:00,
2013-02-21 00:51:00,17.0,10.0,-100.00,SE,145,6.0,9.0,74,0.00,,,-99.99,,2013-02-21 06:51:00,
2013-02-21 01:01:00,17.0,10.0,-100.00,SE,145,6.0,9.0,74,0.00,,,-99.99,,2013-02-21 07:01:00,
2013-02-21 01:11:00,17.0,10.0,-100.00,SE,130,7.0,9.0,74,0.00,,,-99.99,,2013-02-21 07:11:00,
2013-02-21 01:21:00,17.0,10.0,-100.00,SE,130,6.0,9.0,73,0.00,,,-99.99,,2013-02-21 07:21:00,
2013-02-21 01:32:00,17.0,10.0,-100.00,SE,130,6.0,8.0,72,0.00,,,-99.99,,2013-02-21 07:32:00,
2013-02-21 01:42:00,17.0,10.0,-100.00,SE,130,6.0,8.0,72,0.00,,,-99.99,,2013-02-21 07:42:00,
2013-02-21 01:52:00,17.0,9.0,-100.00,SE,135,4.0,7.0,71,0.00,,,-99.99,,2013-02-21 07:52:00,
2013-02-21 02:01:00,17.0,9.0,-100.00,SE,135,4.0,7.0,71,0.00,,,-99.99,,2013-02-21 08:01:00,
2013-02-21 02:11:00,16.0,9.0,-100.00,SE,135,5.0,6.0,71,0.00,,,-99.99,,2013-02-21 08:11:00,
2013-02-21 02:21:00,16.0,9.0,-100.00,SE,130,4.0,7.0,71,0.00,,,-99.99,,2013-02-21 08:21:00,
2013-02-21 02:32:00,16.0,8.0,-100.00,ESE,105,2.0,5.0,71,0.00,,,-99.99,,2013-02-21 08:32:00,
2013-02-21 02:41:00,16.0,8.0,-100.00,ESE,105,2.0,5.0,71,0.00,,,-99.99,,2013-02-21 08:41:00,
2013-02-21 02:52:00,15.0,8.0,-100.00,East,100,3.0,4.0,71,0.00,,,-99.99,,2013-02-21 08:52:00,
2013-02-21 03:01:00,15.0,8.0,-100.00,East,100,3.0,4.0,71,0.00,,,-99.99,,2013-02-21 09:01:00,
2013-02-21 03:11:00,15.0,8.0,-100.00,ESE,105,2.0,4.0,72,0.00,,,-99.99,,2013-02-21 09:11:00,
2013-02-21 03:22:00,15.0,8.0,-100.00,East,100,3.0,4.0,72,0.00,,,-99.99,,2013-02-21 09:22:00,
2013-02-21 03:31:00,15.0,8.0,-100.00,East,100,2.0,3.0,73,0.00,,,-99.99,,2013-02-21 09:31:00,
2013-02-21 03:41:00,15.0,8.0,-100.00,East,100,2.0,3.0,73,0.00,,,-99.99,,2013-02-21 09:41:00,
2013-02-21 03:51:00,14.0,7.0,-100.00,East,95,5.0,6.0,74,0.00,,,-99.99,,2013-02-21 09:51:00,
2013-02-21 04:01:00,14.0,7.0,-100.00,East,95,5.0,6.0,74,0.00,,,-99.99,,2013-02-21 10:01:00,
2013-02-21 04:11:00,14.0,8.0,-100.00,East,95,5.0,6.0,74,0.00,,,-99.99,,2013-02-21 10:11:00,
2013-02-21 04:21:00,14.0,8.0,-100.00,East,95,6.0,7.0,74,0.00,,,-99.99,,2013-02-21 10:21:00,
2013-02-21 04:31:00,13.0,7.0,-100.00,East,95,7.0,9.0,75,0.00,,,-99.99,,2013-02-21 10:31:00,
2013-02-21 04:41:00,13.0,7.0,-100.00,East,95,7.0,9.0,75,0.00,,,-99.99,,2013-02-21 10:41:00,
2013-02-21 04:51:00,14.0,8.0,-100.00,ESE,120,6.0,9.0,76,0.00,,,-99.99,,2013-02-21 10:51:00,
2013-02-21 05:01:00,14.0,8.0,-100.00,ESE,120,6.0,9.0,76,0.00,,,-99.99,,2013-02-21 11:01:00,
2013-02-21 05:11:00,14.0,8.0,-100.00,ESE,120,6.0,7.0,76,0.00,,,-99.99,,2013-02-21 11:11:00,
2013-02-21 05:21:00,14.0,8.0,-100.00,East,100,7.0,9.0,76,0.00,,,-99.99,,2013-02-21 11:21:00,
2013-02-21 05:31:00,14.0,8.0,-100.00,ESE,110,6.0,9.0,77,0.00,,,-99.99,,2013-02-21 11:31:00,
2013-02-21 05:41:00,14.0,8.0,-100.00,ESE,110,6.0,9.0,77,0.00,,,-99.99,,2013-02-21 11:41:00,
2013-02-21 05:51:00,13.0,8.0,-100.00,ESE,115,6.0,7.0,77,0.00,,,-99.99,,2013-02-21 11:51:00,
2013-02-21 06:01:00,13.0,8.0,-100.00,ESE,115,6.0,7.0,77,0.00,,,-99.99,,2013-02-21 12:01:00,
2013-02-21 06:11:00,13.0,8.0,-100.00,ESE,105,6.0,8.0,77,0.00,,,-99.99,,2013-02-21 12:11:00,
2013-02-21 06:21:00,13.0,8.0,-100.00,ESE,120,6.0,7.0,78,0.00,,,-99.99,,2013-02-21 12:21:00,
2013-02-21 06:32:00,13.0,8.0,-100.00,ESE,120,7.0,9.0,78,0.00,,,-99.99,,2013-02-21 12:32:00,
2013-02-21 06:42:00,13.0,8.0,-100.00,ESE,120,7.0,9.0,78,0.00,,,-99.99,,2013-02-21 12:42:00,
2013-02-21 06:52:00,13.0,8.0,-100.00,ESE,105,9.0,12.0,79,0.00,,,-99.99,,2013-02-21 12:52:00,
2013-02-21 07:01:00,13.0,8.0,-100.00,ESE,105,9.0,12.0,79,0.00,,,-99.99,,2013-02-21 13:01:00,
2013-02-21 07:12:00,14.0,9.0,-100.00,ESE,105,7.0,10.0,79,0.00,,,-99.99,,2013-02-21 13:12:00,
2013-02-21 07:22:00,14.0,9.0,-100.00,ESE,110,7.0,12.0,79,0.00,,,-99.99,,2013-02-21 13:22:00,
2013-02-21 07:32:00,15.0,10.0,-100.00,ESE,115,7.0,11.0,79,0.00,,,-99.99,,2013-02-21 13:32:00,
2013-02-21 07:41:00,15.0,10.0,-100.00,ESE,115,7.0,11.0,79,0.00,,,-99.99,,2013-02-21 13:41:00,
2013-02-21 07:51:00,15.0,10.0,-100.00,ESE,115,7.0,11.0,78,0.00,,,-99.99,,2013-02-21 13:51:00,
2013-02-21 08:02:00,15.0,10.0,-100.00,ESE,115,7.0,11.0,78,0.00,,,-99.99,,2013-02-21 14:02:00,
2013-02-21 08:11:00,16.0,10.0,-100.00,SE,125,8.0,11.0,77,0.00,,,-99.99,,2013-02-21 14:11:00,
2013-02-21 08:21:00,16.0,10.0,-100.00,SE,125,9.0,12.0,76,0.00,,,-99.99,,2013-02-21 14:21:00,
2013-02-21 08:32:00,17.0,10.0,-100.00,SE,135,11.0,14.0,75,0.00,,,-99.99,,2013-02-21 14:32:00,
2013-02-21 08:41:00,17.0,10.0,-100.00,SE,135,11.0,14.0,75,0.00,,,-99.99,,2013-02-21 14:41:00,
2013-02-21 08:52:00,17.0,10.0,-100.00,SE,140,11.0,16.0,74,0.00,,,-99.99,,2013-02-21 14:52:00,
2013-02-21 09:01:00,17.0,10.0,-100.00,SE,140,11.0,16.0,74,0.00,,,-99.99,,2013-02-21 15:01:00,
2013-02-21 09:12:00,18.0,11.0,-100.00,ESE,120,9.0,16.0,73,0.00,,,-99.99,,2013-02-21 15:12:00,
2013-02-21 09:21:00,18.0,11.0,-100.00,SE,130,9.0,14.0,72,0.00,,,-99.99,,2013-02-21 15:21:00,
2013-02-21 09:32:00,18.0,11.0,-100.00,SE,125,13.0,17.0,71,0.00,,,-99.99,,2013-02-21 15:32:00,
2013-02-21 09:42:00,18.0,11.0,-100.00,SE,125,13.0,17.0,71,0.00,,,-99.99,,2013-02-21 15:42:00,
2013-02-21 09:51:00,19.0,11.0,-100.00,SE,125,14.0,17.0,71,0.00,,,-99.99,,2013-02-21 15:51:00,
2013-02-21 10:01:00,19.0,11.0,-100.00,SE,125,14.0,17.0,71,0.00,,,-99.99,,2013-02-21 16:01:00,
2013-02-21 10:12:00,19.0,11.0,-100.00,SE,125,12.0,15.0,70,0.00,,,-99.99,,2013-02-21 16:12:00,
2013-02-21 10:21:00,20.0,12.0,-100.00,SE,125,9.0,13.0,70,0.00,,,-99.99,,2013-02-21 16:21:00,
2013-02-21 10:32:00,21.0,13.0,-100.00,SE,130,11.0,14.0,69,0.00,,,-99.99,,2013-02-21 16:32:00,
2013-02-21 10:42:00,21.0,13.0,-100.00,SE,130,11.0,14.0,69,0.00,,,-99.99,,2013-02-21 16:42:00,
2013-02-21 10:52:00,22.0,13.0,-100.00,ESE,110,9.0,12.0,69,0.00,,,-99.99,,2013-02-21 16:52:00,
2013-02-21 11:01:00,22.0,13.0,-100.00,ESE,110,9.0,12.0,69,0.00,,,-99.99,,2013-02-21 17:01:00,
2013-02-21 11:11:00,22.0,14.0,-100.00,SE,125,10.0,13.0,69,0.00,,,-99.99,,2013-02-21 17:11:00,
2013-02-21 11:21:00,22.0,14.0,-100.00,SE,125,12.0,16.0,69,0.00,,,-99.99,,2013-02-21 17:21:00,
2013-02-21 11:32:00,23.0,15.0,-100.00,ESE,115,14.0,19.0,70,0.00,,,-99.99,,2013-02-21 17:32:00,
2013-02-21 11:42:00,23.0,15.0,-100.00,ESE,115,14.0,19.0,70,0.00,,,-99.99,,2013-02-21 17:42:00,
2013-02-21 11:52:00,24.0,16.0,-100.00,SE,125,12.0,17.0,71,0.00,,,-99.99,,2013-02-21 17:52:00,
2013-02-21 12:02:00,24.0,16.0,-100.00,SE,125,12.0,17.0,71,0.00,,,-99.99,,2013-02-21 18:02:00,
2013-02-21 12:11:00,24.0,17.0,-100.00,SE,125,14.0,19.0,73,0.00,,,-99.99,,2013-02-21 18:11:00,
2013-02-21 12:22:00,24.0,17.0,-100.00,SE,125,16.0,19.0,73,0.00,,,-99.99,,2013-02-21 18:22:00,
2013-02-21 12:31:00,25.0,18.0,-100.00,ESE,120,14.0,21.0,75,0.00,,,-99.99,,2013-02-21 18:31:00,
2013-02-21 12:42:00,25.0,18.0,-100.00,ESE,120,14.0,21.0,75,0.00,,,-99.99,,2013-02-21 18:42:00,
2013-02-21 12:51:00,25.0,19.0,-100.00,SE,125,15.0,21.0,76,0.00,,,-99.99,,2013-02-21 18:51:00,
2013-02-21 13:01:00,25.0,19.0,-100.00,SE,125,15.0,21.0,76,0.00,,,-99.99,,2013-02-21 19:01:00,
2013-02-21 13:12:00,25.0,19.0,-100.00,ESE,120,17.0,21.0,77,0.00,,,-99.99,,2013-02-21 19:12:00,
2013-02-21 13:21:00,26.0,20.0,-100.00,ESE,115,13.0,22.0,78,0.00,,,-99.99,,2013-02-21 19:21:00,
2013-02-21 13:31:00,26.0,20.0,-100.00,ESE,115,13.0,21.0,78,0.00,,,-99.99,,2013-02-21 19:31:00,
2013-02-21 13:41:00,26.0,20.0,-100.00,ESE,115,13.0,21.0,78,0.00,,,-99.99,,2013-02-21 19:41:00,
2013-02-21 13:51:00,26.0,20.0,-100.00,SE,130,14.0,22.0,78,0.00,,,-99.99,,2013-02-21 19:51:00,
2013-02-21 14:01:00,26.0,20.0,-100.00,SE,130,14.0,22.0,78,0.00,,,-99.99,,2013-02-21 20:01:00,
2013-02-21 14:11:00,26.0,20.0,-100.00,SE,125,16.0,19.0,79,0.00,,,-99.99,,2013-02-21 20:11:00,
2013-02-21 14:21:00,26.0,21.0,-100.00,SE,125,17.0,21.0,79,0.00,,,-99.99,,2013-02-21 20:21:00,
2013-02-21 14:32:00,27.0,21.0,-100.00,SE,125,16.0,20.0,80,0.00,,,-99.99,,2013-02-21 20:32:00,
2013-02-21 14:41:00,27.0,21.0,-100.00,SE,125,16.0,20.0,80,0.00,,,-99.99,,2013-02-21 20:41:00,
2013-02-21 14:52:00,26.0,21.0,-100.00,ESE,110,16.0,23.0,80,0.00,,,-99.99,,2013-02-21 20:52:00,
2013-02-21 15:02:00,26.0,21.0,-100.00,ESE,110,16.0,23.0,80,0.00,,,-99.99,,2013-02-21 21:02:00,
2013-02-21 15:11:00,26.0,21.0,-100.00,ESE,110,17.0,24.0,81,0.00,,,-99.99,,2013-02-21 21:11:00,
2013-02-21 15:21:00,26.0,21.0,-100.00,ESE,115,17.0,24.0,81,0.00,,,-99.99,,2013-02-21 21:21:00,
2013-02-21 15:31:00,26.0,21.0,-100.00,ESE,115,14.0,25.0,82,0.00,,,-99.99,,2013-02-21 21:31:00,
2013-02-21 15:42:00,26.0,21.0,-100.00,ESE,115,14.0,25.0,82,0.00,,,-99.99,,2013-02-21 21:42:00,
2013-02-21 15:51:00,26.0,21.0,-100.00,ESE,115,18.0,24.0,82,0.00,,,-99.99,,2013-02-21 21:51:00,
2013-02-21 16:01:00,26.0,21.0,-100.00,ESE,115,18.0,24.0,82,0.00,,,-99.99,,2013-02-21 22:01:00,
2013-02-21 16:11:00,26.0,21.0,-100.00,ESE,115,19.0,26.0,82,0.00,,,-99.99,,2013-02-21 22:11:00,
2013-02-21 16:21:00,26.0,21.0,-100.00,ESE,115,21.0,26.0,83,0.00,,,-99.99,,2013-02-21 22:21:00,
2013-02-21 16:31:00,26.0,22.0,-100.00,SE,125,19.0,30.0,83,0.00,,,-99.99,,2013-02-21 22:31:00,
2013-02-21 16:41:00,26.0,22.0,-100.00,SE,125,19.0,30.0,83,0.00,,,-99.99,,2013-02-21 22:41:00,
2013-02-21 16:52:00,26.0,22.0,-100.00,SE,125,15.0,25.0,84,0.00,,,-99.99,,2013-02-21 22:52:00,
2013-02-21 17:01:00,26.0,22.0,-100.00,SE,125,15.0,25.0,84,0.00,,,-99.99,,2013-02-21 23:01:00,
2013-02-21 17:11:00,27.0,23.0,-100.00,SE,135,14.0,24.0,84,0.00,,,-99.99,,2013-02-21 23:11:00,
2013-02-21 17:21:00,27.0,23.0,-100.00,SE,125,15.0,21.0,84,0.00,,,-99.99,,2013-02-21 23:21:00,
2013-02-21 17:31:00,27.0,23.0,-100.00,SE,130,17.0,27.0,84,0.00,,,-99.99,,2013-02-21 23:31:00,
2013-02-21 17:41:00,27.0,23.0,-100.00,SE,130,17.0,27.0,84,0.00,,,-99.99,,2013-02-21 23:41:00,
2013-02-21 17:52:00,28.0,24.0,-100.00,SE,130,20.0,28.0,84,0.00,,,-99.99,,2013-02-21 23:52:00,
2013-02-21 18:01:00,28.0,24.0,-100.00,SE,130,20.0,28.0,84,0.00,,,-99.99,,2013-02-22 00:01:00,
2013-02-21 18:11:00,28.0,24.0,-100.00,SE,125,21.0,27.0,84,0.00,,,-99.99,,2013-02-22 00:11:00,
2013-02-21 18:21:00,28.0,24.0,-100.00,SE,125,24.0,29.0,84,0.00,,,-99.99,,2013-02-22 00:21:00,
2013-02-21 18:32:00,28.0,24.0,-100.00,SE,125,26.0,34.0,84,0.00,,,-99.99,,2013-02-22 00:32:00,
2013-02-21 18:41:00,28.0,24.0,-100.00,SE,125,26.0,34.0,84,0.00,,,-99.99,,2013-02-22 00:41:00,
2013-02-21 18:51:00,28.0,24.0,-100.00,SE,125,24.0,32.0,85,0.00,,,-99.99,,2013-02-22 00:51:00,
2013-02-21 19:01:00,28.0,24.0,-100.00,SE,125,24.0,32.0,85,0.00,,,-99.99,,2013-02-22 01:01:00,
2013-02-21 19:11:00,28.0,24.0,-100.00,ESE,115,20.0,31.0,85,0.00,,,-99.99,,2013-02-22 01:11:00,
2013-02-21 19:21:00,28.0,24.0,-100.00,SE,125,20.0,29.0,85,0.00,,,-99.99,,2013-02-22 01:21:00,
2013-02-21 19:32:00,28.0,24.0,-100.00,SE,125,21.0,27.0,85,0.00,,,-99.99,,2013-02-22 01:32:00,
2013-02-21 19:42:00,28.0,24.0,-100.00,SE,125,21.0,27.0,85,0.00,,,-99.99,,2013-02-22 01:42:00,
2013-02-21 19:51:00,27.0,24.0,-100.00,SE,130,26.0,34.0,85,0.00,,,-99.99,,2013-02-22 01:51:00,
2013-02-21 20:02:00,27.0,24.0,-100.00,SE,130,26.0,34.0,85,0.00,,,-99.99,,2013-02-22 02:02:00,
2013-02-21 20:11:00,27.0,23.0,-100.00,SE,125,27.0,36.0,85,0.00,,,-99.99,,2013-02-22 02:11:00,
2013-02-21 20:21:00,27.0,23.0,-100.00,SE,130,24.0,37.0,85,0.00,,,-99.99,,2013-02-22 02:21:00,
2013-02-21 20:31:00,27.0,23.0,-100.00,SE,125,24.0,34.0,87,0.00,,,-99.99,,2013-02-22 02:31:00,
2013-02-21 20:42:00,27.0,23.0,-100.00,SE,125,24.0,34.0,87,0.00,,,-99.99,,2013-02-22 02:42:00,
2013-02-21 20:52:00,26.0,22.0,-100.00,SE,130,23.0,30.0,87,0.00,,,-99.99,,2013-02-22 02:52:00,
2013-02-21 21:01:00,26.0,22.0,-100.00,SE,130,23.0,30.0,87,0.00,,,-99.99,,2013-02-22 03:01:00,
2013-02-21 21:11:00,26.0,22.0,-100.00,SE,130,17.0,27.0,87,0.00,,,-99.99,,2013-02-22 03:11:00,
2013-02-21 21:21:00,25.0,22.0,-100.00,SE,125,22.0,31.0,88,0.01,,,-99.99,,2013-02-22 03:21:00,
2013-02-21 21:32:00,25.0,22.0,-100.00,SE,125,23.0,32.0,88,0.01,,,-99.99,,2013-02-22 03:32:00,
2013-02-21 21:41:00,25.0,22.0,-100.00,SE,125,23.0,32.0,88,0.01,,,-99.99,,2013-02-22 03:41:00,
2013-02-21 21:51:00,24.0,22.0,-100.00,SE,125,23.0,29.0,89,0.00,,,-99.99,,2013-02-22 03:51:00,
2013-02-21 22:01:00,24.0,22.0,-100.00,SE,125,23.0,29.0,89,0.00,,,-99.99,,2013-02-22 04:01:00,
2013-02-21 22:11:00,24.0,22.0,-100.00,SE,125,21.0,27.0,89,0.03,,,-99.99,,2013-02-22 04:11:00,
2013-02-21 22:21:00,24.0,22.0,-100.00,SE,130,23.0,30.0,89,0.01,,,-99.99,,2013-02-22 04:21:00,
2013-02-21 22:32:00,24.0,22.0,-100.00,SE,130,19.0,26.0,89,0.00,,,-99.99,,2013-02-22 04:32:00,
2013-02-21 22:42:00,24.0,22.0,-100.00,SE,130,19.0,26.0,89,0.00,,,-99.99,,2013-02-22 04:42:00,
2013-02-21 22:51:00,24.0,22.0,-100.00,SE,135,19.0,24.0,89,0.00,,,-99.99,,2013-02-22 04:51:00,
2013-02-21 23:01:00,24.0,22.0,-100.00,SE,135,19.0,24.0,89,0.00,,,-99.99,,2013-02-22 05:01:00,
2013-02-21 23:12:00,24.0,22.0,-100.00,SE,130,17.0,27.0,89,0.00,,,-99.99,,2013-02-22 05:12:00,
2013-02-21 23:22:00,24.0,22.0,-100.00,SE,135,16.0,24.0,89,0.00,,,-99.99,,2013-02-22 05:22:00,
2013-02-21 23:32:00,24.0,22.0,-100.00,SE,140,16.0,23.0,89,0.00,,,-99.99,,2013-02-22 05:32:00,
2013-02-21 23:41:00,24.0,22.0,-100.00,SE,140,16.0,23.0,89,0.00,,,-99.99,,2013-02-22 05:41:00,
2013-02-21 23:52:00,24.0,22.0,-100.00,SE,130,14.0,27.0,89,0.00,,,-99.99,,2013-02-22 05:52:00,